Simultaneous Nadir Overpasses (SNOs) Predictions

Prediction of SNOs between AQUA and METOP-C Satellite Orbit:

Table of predicted SNOs for the next 14.0 days since TLE Epoch: 1/10/2020
Index Date (AQUA) Time (AQUA) Lat,Lon (AQUA) SZA (AQUA ) Date (METOP-C) Time (METOP-C) Lat,Lon (METOP-C) SZA (METOP-C ) Distance(km) Time Diff (sec)
1 01/12/2020 10:21:34 73.40, 19.68 95.11 01/12/2020 10:20:24 73.37, 18.36 95.14 41.94 70
2 01/12/2020 11:11:06 -73.75,-173.43 84.52 01/12/2020 11:10:58 -73.77,-173.39 84.50 2.32 8
3 01/12/2020 12:00:35 73.81, -5.93 95.54 01/12/2020 12:01:36 73.81, -5.96 95.53 1.05 61
4 01/15/2020 06:45:22 -73.72,-106.94 85.02 01/15/2020 06:44:48 -73.71,-106.98 85.03 2.38 34
5 01/15/2020 07:34:51 73.79, 60.55 95.05 01/15/2020 07:35:25 73.79, 60.54 95.04 0.52 34
6 01/18/2020 02:19:38 -73.71, -40.46 85.57 01/18/2020 02:18:37 -73.69, -40.46 85.57 1.27 61
7 01/18/2020 03:09:06 73.78, 127.01 94.51 01/18/2020 03:09:13 73.76, 127.05 94.49 1.99 7
8 01/18/2020 03:58:38 -74.11, -66.10 85.14 01/18/2020 03:59:48 -74.12, -64.75 85.19 41.08 70
9 01/20/2020 21:53:44 -73.22, 26.99 86.66 01/20/2020 21:52:36 -73.13, 24.83 86.65 70.29 68
10 01/20/2020 22:43:21 73.72,-166.43 93.87 01/20/2020 22:43:02 73.74,-166.45 93.89 2.22 19
11 01/20/2020 23:32:48 -73.79, 1.06 86.07 01/20/2020 23:33:43 -73.82, 1.05 86.05 2.74 55
12 01/23/2020 18:17:37 73.73,-100.00 93.24 01/23/2020 18:16:51 73.72, -99.94 93.24 1.95 46
13 01/23/2020 19:07:04 -73.79, 67.51 86.70 01/23/2020 19:07:32 -73.80, 67.58 86.70 2.70 28




NCC Satellite Simultaneous Nadir Overpasses (SNOs) Prediction Service
